Time,TemperatureF,DewpointF,PressureIn,WindDirection,WindDirectionDegrees,WindSpeedMPH,WindSpeedGustMPH,Humidity,HourlyPrecipIn,Conditions,Clouds,dailyrainin,SoftwareType,DateUTC
2013-10-14 00:02:00,72.0,70.5,30.03,East,99,0.0,0.0,95,0.00,,,0.00,Wunderground v.1.15,2013-10-14 05:02:00,
2013-10-14 00:07:00,71.8,70.3,30.03,East,99,0.0,0.0,95,0.00,,,0.00,Wunderground v.1.15,2013-10-14 05:07:00,
2013-10-14 00:12:00,71.8,70.3,30.03,East,99,0.0,0.0,95,0.00,,,0.00,Wunderground v.1.15,2013-10-14 05:12:00,
2013-10-14 00:18:00,71.8,70.3,30.03,East,99,0.0,0.0,95,0.00,,,0.00,Wunderground v.1.15,2013-10-14 05:18:00,
2013-10-14 00:23:00,71.8,70.3,30.03,East,99,0.0,0.0,95,0.00,,,0.00,Wunderground v.1.15,2013-10-14 05:23:00,
2013-10-14 00:28:00,71.8,70.3,30.03,East,99,0.0,0.0,95,0.00,,,0.00,Wunderground v.1.15,2013-10-14 05:28:00,
2013-10-14 00:33:00,71.8,70.3,30.03,East,99,0.0,0.0,95,0.00,,,0.00,Wunderground v.1.15,2013-10-14 05:33:00,
2013-10-14 00:38:00,71.6,70.1,30.03,East,99,0.0,0.0,95,0.00,,,0.00,Wunderground v.1.15,2013-10-14 05:38:00,
2013-10-14 00:43:00,71.6,70.1,30.03,East,99,0.0,0.0,95,0.00,,,0.00,Wunderground v.1.15,2013-10-14 05:43:00,
2013-10-14 00:48:00,71.5,70.0,30.03,East,99,0.0,0.0,95,0.00,,,0.00,Wunderground v.1.15,2013-10-14 05:48:00,
2013-10-14 00:54:00,71.5,70.0,30.03,East,99,0.0,0.0,95,0.00,,,0.00,Wunderground v.1.15,2013-10-14 05:54:00,
2013-10-14 00:59:00,71.5,70.0,30.03,East,99,0.0,0.0,95,0.00,,,0.00,Wunderground v.1.15,2013-10-14 05:59:00,
2013-10-14 01:04:00,71.5,70.0,30.02,East,99,0.0,0.0,95,0.00,,,0.00,Wunderground v.1.15,2013-10-14 06:04:00,
2013-10-14 01:09:00,71.5,70.0,30.02,East,99,0.0,0.0,95,0.00,,,0.00,Wunderground v.1.15,2013-10-14 06:09:00,
2013-10-14 01:14:00,71.5,70.3,30.02,East,99,0.0,0.0,96,0.00,,,0.00,Wunderground v.1.15,2013-10-14 06:14:00,
2013-10-14 01:19:00,71.6,70.4,30.02,East,99,0.0,0.0,96,0.00,,,0.00,Wunderground v.1.15,2013-10-14 06:19:00,
2013-10-14 01:24:00,71.6,70.4,30.02,East,99,0.0,0.0,96,0.00,,,0.00,Wunderground v.1.15,2013-10-14 06:24:00,
2013-10-14 01:29:00,71.5,70.3,30.02,East,99,0.0,0.0,96,0.00,,,0.00,Wunderground v.1.15,2013-10-14 06:29:00,
2013-10-14 01:34:00,71.5,70.3,30.02,East,99,0.0,0.0,96,0.00,,,0.00,Wunderground v.1.15,2013-10-14 06:34:00,
2013-10-14 01:39:00,71.5,70.3,30.02,East,99,0.0,0.0,96,0.00,,,0.00,Wunderground v.1.15,2013-10-14 06:39:00,
2013-10-14 01:44:00,71.6,70.4,30.02,East,99,0.0,0.0,96,0.00,,,0.00,Wunderground v.1.15,2013-10-14 06:44:00,
2013-10-14 01:49:00,71.6,70.4,30.02,East,99,0.0,1.0,96,0.00,,,0.00,Wunderground v.1.15,2013-10-14 06:49:00,
2013-10-14 01:55:00,71.6,70.4,30.02,East,99,1.0,2.0,96,0.00,,,0.00,Wunderground v.1.15,2013-10-14 06:55:00,
2013-10-14 02:00:00,71.6,70.4,30.02,East,95,0.0,2.0,96,0.00,,,0.00,Wunderground v.1.15,2013-10-14 07:00:00,
2013-10-14 02:05:00,71.6,70.4,30.03,East,95,0.0,0.0,96,0.00,,,0.00,Wunderground v.1.15,2013-10-14 07:05:00,
2013-10-14 02:10:00,71.6,70.4,30.03,East,95,0.0,0.0,96,0.00,,,0.00,Wunderground v.1.15,2013-10-14 07:10:00,
2013-10-14 02:15:00,71.6,70.4,30.03,East,99,0.0,1.0,96,0.00,,,0.00,Wunderground v.1.15,2013-10-14 07:15:00,
2013-10-14 02:20:00,71.6,70.4,30.02,ESE,107,1.0,1.0,96,0.00,,,0.00,Wunderground v.1.15,2013-10-14 07:20:00,
2013-10-14 02:25:00,71.6,70.4,30.02,ESE,120,1.0,2.0,96,0.00,,,0.00,Wunderground v.1.15,2013-10-14 07:25:00,
2013-10-14 02:30:00,71.8,70.6,30.00,SE,143,1.0,2.0,96,0.00,,,0.00,Wunderground v.1.15,2013-10-14 07:30:00,
2013-10-14 02:35:00,71.8,70.6,30.00,SE,143,1.0,3.0,96,0.00,,,0.00,Wunderground v.1.15,2013-10-14 07:35:00,
2013-10-14 02:41:00,71.8,70.6,30.00,SE,141,1.0,3.0,96,0.00,,,0.00,Wunderground v.1.15,2013-10-14 07:41:00,
2013-10-14 02:46:00,71.8,70.6,30.00,SE,141,1.0,1.0,96,0.00,,,0.00,Wunderground v.1.15,2013-10-14 07:46:00,
2013-10-14 02:51:00,71.8,70.6,30.00,SE,140,0.0,1.0,96,0.00,,,0.00,Wunderground v.1.15,2013-10-14 07:51:00,
2013-10-14 02:56:00,71.8,70.6,30.00,SE,140,0.0,1.0,96,0.00,,,0.00,Wunderground v.1.15,2013-10-14 07:56:00,
2013-10-14 03:01:00,71.8,70.6,30.00,SE,140,0.0,1.0,96,0.00,,,0.00,Wunderground v.1.15,2013-10-14 08:01:00,
2013-10-14 03:06:00,71.8,70.6,30.00,SE,140,0.0,0.0,96,0.00,,,0.00,Wunderground v.1.15,2013-10-14 08:06:00,
2013-10-14 03:11:00,71.8,70.6,30.00,SE,140,0.0,0.0,96,0.00,,,0.00,Wunderground v.1.15,2013-10-14 08:11:00,
2013-10-14 03:16:00,71.8,70.6,30.00,SE,140,0.0,0.0,96,0.00,,,0.00,Wunderground v.1.15,2013-10-14 08:16:00,
2013-10-14 03:21:00,72.0,70.8,30.00,SE,140,0.0,1.0,96,0.00,,,0.00,Wunderground v.1.15,2013-10-14 08:21:00,
2013-10-14 03:26:00,72.0,70.8,30.00,SE,140,0.0,0.0,96,0.00,,,0.00,Wunderground v.1.15,2013-10-14 08:26:00,
2013-10-14 03:32:00,72.0,70.8,29.99,SE,140,0.0,1.0,96,0.00,,,0.00,Wunderground v.1.15,2013-10-14 08:32:00,
2013-10-14 03:37:00,72.0,70.8,29.99,SE,140,0.0,0.0,96,0.00,,,0.00,Wunderground v.1.15,2013-10-14 08:37:00,
2013-10-14 03:42:00,72.1,70.9,29.99,SSE,161,0.0,1.0,96,0.00,,,0.00,Wunderground v.1.15,2013-10-14 08:42:00,
2013-10-14 03:47:00,72.1,70.9,29.99,SSE,158,0.0,2.0,96,0.00,,,0.00,Wunderground v.1.15,2013-10-14 08:47:00,
2013-10-14 03:52:00,72.1,70.9,29.99,SSE,154,0.0,2.0,96,0.00,,,0.00,Wunderground v.1.15,2013-10-14 08:52:00,
2013-10-14 03:57:00,72.1,70.9,29.99,South,169,1.0,5.0,96,0.00,,,0.00,Wunderground v.1.15,2013-10-14 08:57:00,
2013-10-14 04:02:00,72.1,70.9,29.98,SSE,168,1.0,1.0,96,0.00,,,0.00,Wunderground v.1.15,2013-10-14 09:02:00,
2013-10-14 04:07:00,72.1,70.9,29.98,SSE,154,1.0,3.0,96,0.00,,,0.00,Wunderground v.1.15,2013-10-14 09:07:00,
2013-10-14 04:12:00,72.1,70.9,29.98,SSE,147,1.0,1.0,96,0.00,,,0.00,Wunderground v.1.15,2013-10-14 09:12:00,
2013-10-14 04:17:00,72.1,70.9,29.98,SSE,147,1.0,1.0,96,0.00,,,0.00,Wunderground v.1.15,2013-10-14 09:17:00,
2013-10-14 04:22:00,72.1,70.9,29.98,SSE,147,0.0,0.0,96,0.00,,,0.00,Wunderground v.1.15,2013-10-14 09:22:00,
2013-10-14 04:28:00,72.1,70.9,29.98,SSE,147,0.0,2.0,96,0.00,,,0.00,Wunderground v.1.15,2013-10-14 09:28:00,
2013-10-14 04:33:00,72.1,70.9,29.97,SSE,161,1.0,2.0,96,0.00,,,0.00,Wunderground v.1.15,2013-10-14 09:33:00,
2013-10-14 04:38:00,72.1,70.9,29.97,SSE,158,1.0,2.0,96,0.00,,,0.00,Wunderground v.1.15,2013-10-14 09:38:00,
2013-10-14 04:43:00,72.1,70.9,29.97,SSE,158,1.0,1.0,96,0.00,,,0.00,Wunderground v.1.15,2013-10-14 09:43:00,
2013-10-14 04:48:00,72.3,71.1,29.98,SSE,158,0.0,1.0,96,0.00,,,0.00,Wunderground v.1.15,2013-10-14 09:48:00,
2013-10-14 04:53:00,72.3,71.1,29.98,SSE,162,1.0,3.0,96,0.00,,,0.00,Wunderground v.1.15,2013-10-14 09:53:00,
2013-10-14 04:58:00,72.3,71.1,29.98,SSE,147,2.0,3.0,96,0.00,,,0.00,Wunderground v.1.15,2013-10-14 09:58:00,
2013-10-14 05:03:00,72.3,71.1,29.97,South,169,3.0,3.0,96,0.00,,,0.00,Wunderground v.1.15,2013-10-14 10:03:00,
2013-10-14 05:09:00,72.3,71.1,29.97,SE,144,3.0,3.0,96,0.00,,,0.00,Wunderground v.1.15,2013-10-14 10:09:00,
2013-10-14 05:14:00,72.3,71.1,29.97,SE,137,2.0,3.0,96,0.00,,,0.00,Wunderground v.1.15,2013-10-14 10:14:00,
2013-10-14 05:19:00,72.3,71.1,29.97,SSE,150,2.0,3.0,96,0.00,,,0.00,Wunderground v.1.15,2013-10-14 10:19:00,
2013-10-14 05:24:00,72.5,71.3,29.97,South,182,2.0,3.0,96,0.00,,,0.00,Wunderground v.1.15,2013-10-14 10:24:00,
2013-10-14 05:29:00,72.5,71.3,29.97,SE,141,2.0,6.0,96,0.00,,,0.00,Wunderground v.1.15,2013-10-14 10:29:00,
2013-10-14 05:34:00,72.5,71.3,29.97,SE,133,2.0,5.0,96,0.00,,,0.00,Wunderground v.1.15,2013-10-14 10:34:00,
2013-10-14 05:39:00,72.5,71.3,29.97,SSE,160,3.0,5.0,96,0.00,,,0.00,Wunderground v.1.15,2013-10-14 10:39:00,
2013-10-14 05:44:00,72.7,71.5,29.97,South,169,2.0,2.0,96,0.00,,,0.00,Wunderground v.1.15,2013-10-14 10:44:00,
2013-10-14 05:49:00,72.7,71.5,29.97,SSE,148,0.0,2.0,96,0.00,,,0.00,Wunderground v.1.15,2013-10-14 10:49:00,
2013-10-14 05:54:00,72.7,71.5,29.97,SSE,147,0.0,1.0,96,0.00,,,0.00,Wunderground v.1.15,2013-10-14 10:54:00,
2013-10-14 05:59:00,72.7,71.5,29.97,SE,145,0.0,2.0,96,0.00,,,0.00,Wunderground v.1.15,2013-10-14 10:59:00,
2013-10-14 06:05:00,72.7,71.5,29.98,SE,138,0.0,1.0,96,0.00,,,0.00,Wunderground v.1.15,2013-10-14 11:05:00,
2013-10-14 06:10:00,72.7,71.5,29.98,SE,138,0.0,1.0,96,0.00,,,0.00,Wunderground v.1.15,2013-10-14 11:10:00,
2013-10-14 06:15:00,72.7,71.5,29.98,SE,138,0.0,0.0,96,0.00,,,0.00,Wunderground v.1.15,2013-10-14 11:15:00,
2013-10-14 06:20:00,72.7,71.5,29.98,SE,138,0.0,0.0,96,0.00,,,0.00,Wunderground v.1.15,2013-10-14 11:20:00,
2013-10-14 06:25:00,72.5,71.3,29.98,SE,138,0.0,0.0,96,0.00,,,0.00,Wunderground v.1.15,2013-10-14 11:25:00,
2013-10-14 06:30:00,72.5,71.3,29.98,SE,138,0.0,0.0,96,0.00,,,0.00,Wunderground v.1.15,2013-10-14 11:30:00,
2013-10-14 06:35:00,72.5,71.3,29.99,SE,138,0.0,0.0,96,0.00,,,0.00,Wunderground v.1.15,2013-10-14 11:35:00,
2013-10-14 06:40:00,72.5,71.3,29.99,SE,138,0.0,0.0,96,0.00,,,0.00,Wunderground v.1.15,2013-10-14 11:40:00,
2013-10-14 06:45:00,72.5,71.3,30.00,SE,138,0.0,0.0,96,0.00,,,0.00,Wunderground v.1.15,2013-10-14 11:45:00,
2013-10-14 06:50:00,72.3,71.1,30.00,SE,138,0.0,0.0,96,0.00,,,0.00,Wunderground v.1.15,2013-10-14 11:50:00,
2013-10-14 06:56:00,72.3,71.1,30.00,SE,138,0.0,0.0,96,0.00,,,0.00,Wunderground v.1.15,2013-10-14 11:56:00,
2013-10-14 07:01:00,72.5,71.3,30.00,SE,138,0.0,0.0,96,0.00,,,0.00,Wunderground v.1.15,2013-10-14 12:01:00,
2013-10-14 07:06:00,72.5,71.3,30.00,SE,138,0.0,0.0,96,0.00,,,0.00,Wunderground v.1.15,2013-10-14 12:06:00,
2013-10-14 07:11:00,72.5,71.3,30.00,SE,138,0.0,0.0,96,0.00,,,0.00,Wunderground v.1.15,2013-10-14 12:11:00,
2013-10-14 07:16:00,72.5,71.3,30.01,SE,138,0.0,0.0,96,0.00,,,0.00,Wunderground v.1.15,2013-10-14 12:16:00,
2013-10-14 07:21:00,72.5,71.3,30.01,SE,138,0.0,0.0,96,0.00,,,0.00,Wunderground v.1.15,2013-10-14 12:21:00,
2013-10-14 07:26:00,72.5,71.3,30.01,SE,138,0.0,0.0,96,0.00,,,0.00,Wunderground v.1.15,2013-10-14 12:26:00,
2013-10-14 07:31:00,72.5,71.3,30.01,SE,138,0.0,0.0,96,0.00,,,0.00,Wunderground v.1.15,2013-10-14 12:31:00,
2013-10-14 07:36:00,72.7,71.5,30.01,SE,138,0.0,0.0,96,0.00,,,0.00,Wunderground v.1.15,2013-10-14 12:36:00,
2013-10-14 07:41:00,72.8,71.6,30.01,SE,138,0.0,0.0,96,0.00,,,0.00,Wunderground v.1.15,2013-10-14 12:41:00,
2013-10-14 07:46:00,72.8,71.6,30.01,SE,126,1.0,2.0,96,0.00,,,0.00,Wunderground v.1.15,2013-10-14 12:46:00,
2013-10-14 07:52:00,73.0,71.8,30.01,SSE,162,1.0,2.0,96,0.00,,,0.00,Wunderground v.1.15,2013-10-14 12:52:00,
2013-10-14 07:57:00,73.0,71.8,30.01,ESE,117,1.0,2.0,96,0.00,,,0.00,Wunderground v.1.15,2013-10-14 12:57:00,
2013-10-14 08:02:00,73.3,72.1,30.01,ESE,117,1.0,1.0,96,0.00,,,0.00,Wunderground v.1.15,2013-10-14 13:02:00,
2013-10-14 08:07:00,73.5,72.3,30.01,ESE,116,1.0,2.0,96,0.00,,,0.00,Wunderground v.1.15,2013-10-14 13:07:00,
2013-10-14 08:12:00,73.5,72.3,30.01,ESE,116,1.0,1.0,96,0.00,,,0.00,Wunderground v.1.15,2013-10-14 13:12:00,
2013-10-14 08:17:00,73.7,72.5,30.02,ESE,114,1.0,2.0,96,0.00,,,0.00,Wunderground v.1.15,2013-10-14 13:17:00,
2013-10-14 08:22:00,73.7,72.5,30.02,ESE,114,1.0,1.0,96,0.00,,,0.00,Wunderground v.1.15,2013-10-14 13:22:00,
2013-10-14 08:27:00,73.9,72.7,30.02,South,175,1.0,3.0,96,0.00,,,0.00,Wunderground v.1.15,2013-10-14 13:27:00,
2013-10-14 08:32:00,73.9,72.7,30.02,SE,138,1.0,1.0,96,0.00,,,0.00,Wunderground v.1.15,2013-10-14 13:32:00,
2013-10-14 08:37:00,73.9,72.7,30.02,ESE,119,1.0,1.0,96,0.00,,,0.00,Wunderground v.1.15,2013-10-14 13:37:00,
2013-10-14 08:42:00,74.0,72.8,30.02,SE,128,1.0,2.0,96,0.00,,,0.00,Wunderground v.1.15,2013-10-14 13:42:00,
2013-10-14 08:47:00,74.2,73.0,30.02,SSE,154,1.0,3.0,96,0.00,,,0.00,Wunderground v.1.15,2013-10-14 13:47:00,
2013-10-14 08:52:00,74.2,73.0,30.02,South,174,1.0,1.0,96,0.00,,,0.00,Wunderground v.1.15,2013-10-14 13:52:00,
2013-10-14 08:57:00,74.4,73.2,30.02,SE,144,1.0,2.0,96,0.00,,,0.00,Wunderground v.1.15,2013-10-14 13:57:00,
2013-10-14 09:02:00,74.9,73.7,30.02,South,172,1.0,1.0,96,0.00,,,0.00,Wunderground v.1.15,2013-10-14 14:02:00,
2013-10-14 09:07:00,75.1,73.6,30.02,SE,145,1.0,2.0,95,0.00,,,0.00,Wunderground v.1.15,2013-10-14 14:07:00,
2013-10-14 09:12:00,75.3,73.8,30.02,SSE,152,1.0,1.0,95,0.00,,,0.00,Wunderground v.1.15,2013-10-14 14:12:00,
2013-10-14 09:17:00,75.6,73.8,30.02,SE,140,1.0,6.0,94,0.00,,,0.00,Wunderground v.1.15,2013-10-14 14:17:00,
2013-10-14 09:22:00,75.6,73.8,30.02,SE,124,2.0,7.0,94,0.00,,,0.00,Wunderground v.1.15,2013-10-14 14:22:00,
2013-10-14 09:27:00,76.1,74.2,30.02,SW,217,0.0,7.0,94,0.00,,,0.00,Wunderground v.1.15,2013-10-14 14:27:00,
2013-10-14 09:32:00,76.3,73.5,30.02,SSW,192,3.0,5.0,91,0.00,,,0.00,Wunderground v.1.15,2013-10-14 14:32:00,
2013-10-14 09:37:00,76.5,73.0,30.02,SSE,151,3.0,6.0,89,0.00,,,0.00,Wunderground v.1.15,2013-10-14 14:37:00,
2013-10-14 09:43:00,77.0,72.8,30.02,SSE,164,4.0,4.0,87,0.00,,,0.00,Wunderground v.1.15,2013-10-14 14:43:00,
2013-10-14 09:48:00,77.4,72.9,30.03,SSW,206,3.0,4.0,86,0.00,,,0.00,Wunderground v.1.15,2013-10-14 14:48:00,
2013-10-14 09:53:00,77.6,73.1,30.03,SSE,165,4.0,6.0,86,0.00,,,0.00,Wunderground v.1.15,2013-10-14 14:53:00,
2013-10-14 09:58:00,78.1,72.9,30.03,SSE,151,5.0,6.0,84,0.00,,,0.00,Wunderground v.1.15,2013-10-14 14:58:00,
2013-10-14 10:03:00,78.5,73.3,30.02,SSE,167,5.0,5.0,84,0.00,,,0.00,Wunderground v.1.15,2013-10-14 15:03:00,
2013-10-14 10:08:00,78.8,72.5,30.02,SSW,193,5.0,11.0,81,0.00,,,0.00,Wunderground v.1.15,2013-10-14 15:08:00,
2013-10-14 10:13:00,79.2,72.9,30.02,South,178,4.0,6.0,81,0.00,,,0.00,Wunderground v.1.15,2013-10-14 15:13:00,
2013-10-14 10:18:00,78.8,71.7,30.02,South,176,5.0,8.0,79,0.00,,,0.00,Wunderground v.1.15,2013-10-14 15:18:00,
2013-10-14 10:23:00,78.8,72.1,30.02,SW,216,6.0,6.0,80,0.00,,,0.00,Wunderground v.1.15,2013-10-14 15:23:00,
2013-10-14 10:29:00,79.2,72.5,30.02,South,181,5.0,6.0,80,0.00,,,0.00,Wunderground v.1.15,2013-10-14 15:29:00,
2013-10-14 10:34:00,79.2,72.5,30.02,South,175,4.0,6.0,80,0.00,,,0.00,Wunderground v.1.15,2013-10-14 15:34:00,
2013-10-14 10:39:00,79.2,72.5,30.02,SE,138,5.0,6.0,80,0.00,,,0.00,Wunderground v.1.15,2013-10-14 15:39:00,
2013-10-14 10:44:00,79.6,72.5,30.02,South,175,3.0,3.0,79,0.00,,,0.00,Wunderground v.1.15,2013-10-14 15:44:00,
2013-10-14 10:49:00,79.8,72.7,30.01,SSE,167,2.0,3.0,79,0.00,,,0.00,Wunderground v.1.15,2013-10-14 15:49:00,
2013-10-14 10:54:00,79.8,72.3,30.01,SSW,196,4.0,5.0,78,0.00,,,0.00,Wunderground v.1.15,2013-10-14 15:54:00,
2013-10-14 10:59:00,79.9,72.4,30.01,SSW,203,4.0,5.0,78,0.00,,,0.00,Wunderground v.1.15,2013-10-14 15:59:00,
2013-10-14 11:04:00,80.1,72.6,30.01,South,188,4.0,6.0,78,0.00,,,0.00,Wunderground v.1.15,2013-10-14 16:04:00,
2013-10-14 11:10:00,80.1,71.5,30.01,SSE,160,4.0,10.0,75,0.00,,,0.00,Wunderground v.1.15,2013-10-14 16:10:00,
2013-10-14 11:15:00,80.1,71.1,30.01,South,191,5.0,7.0,74,0.00,,,0.00,Wunderground v.1.15,2013-10-14 16:15:00,
2013-10-14 11:20:00,80.3,71.6,30.01,South,176,5.0,7.0,75,0.00,,,0.00,Wunderground v.1.15,2013-10-14 16:20:00,
2013-10-14 11:25:00,80.9,72.2,30.01,SSW,203,5.0,8.0,75,0.00,,,0.00,Wunderground v.1.15,2013-10-14 16:25:00,
2013-10-14 11:30:00,81.4,72.7,30.01,South,184,7.0,12.0,75,0.00,,,0.00,Wunderground v.1.15,2013-10-14 16:30:00,
2013-10-14 11:35:00,81.8,73.1,30.01,SSE,160,7.0,13.0,75,0.00,,,0.00,Wunderground v.1.15,2013-10-14 16:35:00,
2013-10-14 11:40:00,81.8,73.1,30.01,South,191,7.0,14.0,75,0.00,,,0.00,Wunderground v.1.15,2013-10-14 16:40:00,
2013-10-14 11:45:00,82.2,71.4,30.00,South,171,6.0,11.0,70,0.00,,,0.00,Wunderground v.1.15,2013-10-14 16:45:00,
2013-10-14 11:50:00,82.4,71.2,30.00,SSE,168,7.0,11.0,69,0.00,,,0.00,Wunderground v.1.15,2013-10-14 16:50:00,
2013-10-14 11:56:00,82.6,71.8,30.00,South,171,6.0,7.0,70,0.00,,,0.00,Wunderground v.1.15,2013-10-14 16:56:00,
2013-10-14 12:01:00,82.8,71.6,30.00,SW,219,7.0,7.0,69,0.00,,,0.00,Wunderground v.1.15,2013-10-14 17:01:00,
2013-10-14 12:06:00,83.0,71.3,30.00,South,174,5.0,10.0,68,0.00,,,0.00,Wunderground v.1.15,2013-10-14 17:06:00,
2013-10-14 12:11:00,83.4,70.8,30.00,SSW,195,5.0,11.0,66,0.00,,,0.00,Wunderground v.1.15,2013-10-14 17:11:00,
2013-10-14 12:17:00,83.2,71.1,29.99,SSE,164,6.0,8.0,67,0.00,,,0.00,Wunderground v.1.15,2013-10-14 17:17:00,
2013-10-14 12:24:00,82.6,70.5,29.99,SW,224,6.0,10.0,67,0.00,,,0.00,Wunderground v.1.15,2013-10-14 17:24:00,
2013-10-14 12:29:00,82.0,70.8,29.99,SSW,196,6.0,13.0,69,0.00,,,0.00,Wunderground v.1.15,2013-10-14 17:29:00,
2013-10-14 12:34:00,81.8,71.1,29.99,SW,230,6.0,6.0,70,0.00,,,0.00,Wunderground v.1.15,2013-10-14 17:34:00,
2013-10-14 12:39:00,81.6,70.4,29.99,SSW,205,5.0,7.0,69,0.00,,,0.00,Wunderground v.1.15,2013-10-14 17:39:00,
2013-10-14 12:44:00,82.2,71.0,29.99,SSW,199,4.0,8.0,69,0.00,,,0.00,Wunderground v.1.15,2013-10-14 17:44:00,
2013-10-14 12:49:00,82.6,70.1,29.98,SSW,203,4.0,8.0,66,0.00,,,0.00,Wunderground v.1.15,2013-10-14 17:49:00,
2013-10-14 12:54:00,82.4,70.3,29.98,SSW,193,6.0,11.0,67,0.00,,,0.00,Wunderground v.1.15,2013-10-14 17:54:00,
2013-10-14 12:59:00,81.8,70.2,29.98,SSW,200,6.0,11.0,68,0.00,,,0.00,Wunderground v.1.15,2013-10-14 17:59:00,
2013-10-14 13:04:00,81.1,70.4,29.97,SSW,195,5.0,6.0,70,0.00,,,0.00,Wunderground v.1.15,2013-10-14 18:04:00,
2013-10-14 13:09:00,80.7,70.4,29.97,South,171,4.0,6.0,71,0.00,,,0.00,Wunderground v.1.15,2013-10-14 18:09:00,
2013-10-14 13:15:00,80.7,70.4,29.97,South,186,2.0,8.0,71,0.00,,,0.00,Wunderground v.1.15,2013-10-14 18:15:00,
2013-10-14 13:20:00,80.9,69.3,29.96,SSW,193,3.0,12.0,68,0.00,,,0.00,Wunderground v.1.15,2013-10-14 18:20:00,
2013-10-14 13:25:00,81.4,69.4,29.96,SSW,193,5.0,10.0,67,0.00,,,0.00,Wunderground v.1.15,2013-10-14 18:25:00,
2013-10-14 13:30:00,81.6,69.6,29.96,SSW,213,8.0,14.0,67,0.00,,,0.00,Wunderground v.1.15,2013-10-14 18:30:00,
2013-10-14 13:35:00,81.8,68.9,29.95,South,181,8.0,11.0,65,0.00,,,0.00,Wunderground v.1.15,2013-10-14 18:35:00,
2013-10-14 13:40:00,82.2,69.3,29.95,WSW,247,7.0,11.0,65,0.00,,,0.00,Wunderground v.1.15,2013-10-14 18:40:00,
2013-10-14 13:45:00,82.4,69.4,29.94,SSW,198,6.0,8.0,65,0.00,,,0.00,Wunderground v.1.15,2013-10-14 18:45:00,
2013-10-14 13:51:00,82.4,68.5,29.94,South,179,6.0,11.0,63,0.00,,,0.00,Wunderground v.1.15,2013-10-14 18:51:00,
2013-10-14 13:56:00,82.4,68.5,29.94,SSW,206,8.0,8.0,63,0.00,,,0.00,Wunderground v.1.15,2013-10-14 18:56:00,
2013-10-14 14:01:00,82.6,68.7,29.93,SSW,198,7.0,8.0,63,0.00,,,0.00,Wunderground v.1.15,2013-10-14 19:01:00,
2013-10-14 14:06:00,82.6,68.7,29.93,South,185,6.0,8.0,63,0.00,,,0.00,Wunderground v.1.15,2013-10-14 19:06:00,
2013-10-14 14:11:00,82.6,68.3,29.93,SSW,209,7.0,8.0,62,0.00,,,0.00,Wunderground v.1.15,2013-10-14 19:11:00,
2013-10-14 14:16:00,82.8,68.0,29.92,SW,230,7.0,16.0,61,0.00,,,0.00,Wunderground v.1.15,2013-10-14 19:16:00,
2013-10-14 14:21:00,83.0,68.2,29.92,South,185,8.0,16.0,61,0.00,,,0.00,Wunderground v.1.15,2013-10-14 19:21:00,
2013-10-14 14:26:00,83.4,68.5,29.92,SW,215,6.0,10.0,61,0.00,,,0.00,Wunderground v.1.15,2013-10-14 19:26:00,
2013-10-14 14:31:00,83.4,68.5,29.92,SE,145,5.0,10.0,61,0.00,,,0.00,Wunderground v.1.15,2013-10-14 19:31:00,
2013-10-14 14:36:00,83.6,69.7,29.92,SSW,212,4.0,7.0,63,0.00,,,0.00,Wunderground v.1.15,2013-10-14 19:36:00,
2013-10-14 14:42:00,83.8,68.4,29.92,SW,217,6.0,7.0,60,0.00,,,0.00,Wunderground v.1.15,2013-10-14 19:42:00,
2013-10-14 14:47:00,84.0,68.6,29.92,South,181,5.0,6.0,60,0.00,,,0.00,Wunderground v.1.15,2013-10-14 19:47:00,
2013-10-14 14:52:00,84.1,68.7,29.92,SW,219,5.0,10.0,60,0.00,,,0.00,Wunderground v.1.15,2013-10-14 19:52:00,
2013-10-14 14:57:00,83.6,68.2,29.92,SSW,193,4.0,7.0,60,0.00,,,0.00,Wunderground v.1.15,2013-10-14 19:57:00,
2013-10-14 15:02:00,83.4,68.1,29.91,SSW,208,6.0,6.0,60,0.00,,,0.00,Wunderground v.1.15,2013-10-14 20:02:00,
2013-10-14 15:07:00,83.0,68.2,29.91,SSW,203,5.0,6.0,61,0.00,,,0.00,Wunderground v.1.15,2013-10-14 20:07:00,
2013-10-14 15:12:00,82.8,68.4,29.91,South,189,4.0,4.0,62,0.00,,,0.00,Wunderground v.1.15,2013-10-14 20:12:00,
2013-10-14 15:17:00,83.0,68.6,29.91,SW,223,3.0,5.0,62,0.00,,,0.00,Wunderground v.1.15,2013-10-14 20:17:00,
2013-10-14 15:22:00,83.2,68.8,29.91,SSW,203,2.0,5.0,62,0.00,,,0.00,Wunderground v.1.15,2013-10-14 20:22:00,
2013-10-14 15:27:00,83.4,68.1,29.91,SSW,199,3.0,5.0,60,0.00,,,0.00,Wunderground v.1.15,2013-10-14 20:27:00,
2013-10-14 15:32:00,83.2,67.9,29.91,South,178,3.0,5.0,60,0.00,,,0.00,Wunderground v.1.15,2013-10-14 20:32:00,
2013-10-14 15:38:00,82.8,67.0,29.91,South,186,6.0,10.0,59,0.00,,,0.00,Wunderground v.1.15,2013-10-14 20:38:00,
2013-10-14 15:43:00,82.8,67.5,29.91,SSW,209,6.0,6.0,60,0.00,,,0.00,Wunderground v.1.15,2013-10-14 20:43:00,
2013-10-14 15:48:00,82.6,67.8,29.91,SSW,206,5.0,7.0,61,0.00,,,0.00,Wunderground v.1.15,2013-10-14 20:48:00,
2013-10-14 15:53:00,82.4,67.6,29.91,SSW,192,5.0,8.0,61,0.00,,,0.00,Wunderground v.1.15,2013-10-14 20:53:00,
2013-10-14 15:58:00,82.2,67.9,29.91,SSW,210,5.0,8.0,62,0.00,,,0.00,Wunderground v.1.15,2013-10-14 20:58:00,
2013-10-14 16:03:00,82.2,67.4,29.91,SSW,202,3.0,7.0,61,0.00,,,0.00,Wunderground v.1.15,2013-10-14 21:03:00,
2013-10-14 16:08:00,82.0,67.2,29.91,SW,222,3.0,8.0,61,0.00,,,0.00,Wunderground v.1.15,2013-10-14 21:08:00,
2013-10-14 16:13:00,82.0,67.2,29.91,SW,220,5.0,5.0,61,0.00,,,0.00,Wunderground v.1.15,2013-10-14 21:13:00,
2013-10-14 16:18:00,81.8,67.0,29.90,SW,236,6.0,10.0,61,0.00,,,0.00,Wunderground v.1.15,2013-10-14 21:18:00,
2013-10-14 16:23:00,81.8,68.0,29.90,South,189,6.0,7.0,63,0.00,,,0.00,Wunderground v.1.15,2013-10-14 21:23:00,
2013-10-14 16:28:00,81.8,68.4,29.90,SSW,205,5.0,7.0,64,0.00,,,0.00,Wunderground v.1.15,2013-10-14 21:28:00,
2013-10-14 16:33:00,81.6,68.2,29.90,South,171,5.0,5.0,64,0.00,,,0.00,Wunderground v.1.15,2013-10-14 21:33:00,
2013-10-14 16:38:00,81.6,67.3,29.90,SSW,208,4.0,8.0,62,0.00,,,0.00,Wunderground v.1.15,2013-10-14 21:38:00,
2013-10-14 16:44:00,81.6,67.3,29.90,SSW,208,4.0,4.0,62,0.00,,,0.00,Wunderground v.1.15,2013-10-14 21:44:00,
2013-10-14 16:49:00,81.6,67.3,29.90,SSW,212,4.0,8.0,62,0.00,,,0.00,Wunderground v.1.15,2013-10-14 21:49:00,
2013-10-14 16:54:00,81.6,67.3,29.90,SW,227,3.0,3.0,62,0.00,,,0.00,Wunderground v.1.15,2013-10-14 21:54:00,
2013-10-14 16:59:00,81.8,67.5,29.90,SSW,202,3.0,5.0,62,0.00,,,0.00,Wunderground v.1.15,2013-10-14 21:59:00,
2013-10-14 17:04:00,81.8,68.0,29.90,SSW,198,4.0,7.0,63,0.00,,,0.00,Wunderground v.1.15,2013-10-14 22:04:00,
2013-10-14 17:09:00,82.0,68.6,29.90,SSW,196,3.0,7.0,64,0.00,,,0.00,Wunderground v.1.15,2013-10-14 22:09:00,
2013-10-14 17:14:00,81.8,68.0,29.90,SSW,198,4.0,10.0,63,0.00,,,0.00,Wunderground v.1.15,2013-10-14 22:14:00,
2013-10-14 17:19:00,81.6,68.2,29.90,South,188,4.0,10.0,64,0.00,,,0.00,Wunderground v.1.15,2013-10-14 22:19:00,
2013-10-14 17:24:00,81.4,68.1,29.90,SW,226,3.0,6.0,64,0.00,,,0.00,Wunderground v.1.15,2013-10-14 22:24:00,
2013-10-14 17:29:00,81.4,67.6,29.90,South,186,4.0,7.0,63,0.00,,,0.00,Wunderground v.1.15,2013-10-14 22:29:00,
2013-10-14 17:34:00,81.2,67.4,29.90,SW,227,5.0,5.0,63,0.00,,,0.00,Wunderground v.1.15,2013-10-14 22:34:00,
2013-10-14 17:40:00,81.1,67.3,29.90,SW,219,4.0,8.0,63,0.00,,,0.00,Wunderground v.1.15,2013-10-14 22:40:00,
2013-10-14 17:45:00,81.1,68.2,29.90,SW,215,4.0,4.0,65,0.00,,,0.00,Wunderground v.1.15,2013-10-14 22:45:00,
2013-10-14 17:50:00,81.1,68.2,29.91,South,191,4.0,8.0,65,0.00,,,0.00,Wunderground v.1.15,2013-10-14 22:50:00,
2013-10-14 17:55:00,80.9,68.5,29.91,SSW,193,4.0,4.0,66,0.00,,,0.00,Wunderground v.1.15,2013-10-14 22:55:00,
2013-10-14 18:00:00,80.9,68.5,29.91,SW,216,3.0,4.0,66,0.00,,,0.00,Wunderground v.1.15,2013-10-14 23:00:00,
2013-10-14 18:05:00,80.9,68.9,29.90,SSE,148,2.0,3.0,67,0.00,,,0.00,Wunderground v.1.15,2013-10-14 23:05:00,
2013-10-14 18:10:00,80.9,68.5,29.90,SSW,206,2.0,7.0,66,0.00,,,0.00,Wunderground v.1.15,2013-10-14 23:10:00,
2013-10-14 18:15:00,80.9,68.5,29.91,SSW,199,2.0,2.0,66,0.00,,,0.00,Wunderground v.1.15,2013-10-14 23:15:00,
2013-10-14 18:20:00,80.9,68.5,29.91,SSW,209,2.0,2.0,66,0.00,,,0.00,Wunderground v.1.15,2013-10-14 23:20:00,
2013-10-14 18:25:00,80.7,68.3,29.91,SW,215,1.0,3.0,66,0.00,,,0.00,Wunderground v.1.15,2013-10-14 23:25:00,
2013-10-14 18:30:00,80.7,68.3,29.91,SSW,202,1.0,3.0,66,0.00,,,0.00,Wunderground v.1.15,2013-10-14 23:30:00,
2013-10-14 18:35:00,80.3,69.2,29.91,SSW,206,2.0,6.0,69,0.00,,,0.00,Wunderground v.1.15,2013-10-14 23:35:00,
2013-10-14 18:41:00,80.1,69.0,29.91,SSW,210,2.0,6.0,69,0.00,,,0.00,Wunderground v.1.15,2013-10-14 23:41:00,
2013-10-14 18:46:00,79.9,69.2,29.91,SSW,213,1.0,2.0,70,0.00,,,0.00,Wunderground v.1.15,2013-10-14 23:46:00,
2013-10-14 18:51:00,79.8,69.1,29.91,South,182,0.0,2.0,70,0.00,,,0.00,Wunderground v.1.15,2013-10-14 23:51:00,
2013-10-14 18:56:00,79.4,69.2,29.91,South,188,0.0,1.0,71,0.00,,,0.00,Wunderground v.1.15,2013-10-14 23:56:00,
2013-10-14 19:01:00,79.2,69.4,29.91,South,188,0.0,1.0,72,0.00,,,0.00,Wunderground v.1.15,2013-10-15 00:01:00,
2013-10-14 19:06:00,78.8,69.0,29.91,South,185,1.0,3.0,72,0.00,,,0.00,Wunderground v.1.15,2013-10-15 00:06:00,
2013-10-14 19:11:00,78.6,69.2,29.91,South,191,3.0,7.0,73,0.00,,,0.00,Wunderground v.1.15,2013-10-15 00:11:00,
2013-10-14 19:16:00,78.5,69.1,29.91,SSW,208,3.0,3.0,73,0.00,,,0.00,Wunderground v.1.15,2013-10-15 00:16:00,
2013-10-14 19:21:00,78.3,69.3,29.91,SSW,209,2.0,3.0,74,0.00,,,0.00,Wunderground v.1.15,2013-10-15 00:21:00,
2013-10-14 19:26:00,78.1,69.1,29.91,SSW,199,1.0,1.0,74,0.00,,,0.00,Wunderground v.1.15,2013-10-15 00:26:00,
2013-10-14 19:31:00,77.9,69.3,29.90,SSW,200,2.0,7.0,75,0.00,,,0.00,Wunderground v.1.15,2013-10-15 00:31:00,
2013-10-14 19:36:00,77.7,69.1,29.90,SSW,203,3.0,5.0,75,0.00,,,0.00,Wunderground v.1.15,2013-10-15 00:36:00,
2013-10-14 19:41:00,77.6,69.0,29.90,South,175,2.0,5.0,75,0.00,,,0.00,Wunderground v.1.15,2013-10-15 00:41:00,
2013-10-14 19:46:00,77.4,68.9,29.91,SSW,193,2.0,3.0,75,0.00,,,0.00,Wunderground v.1.15,2013-10-15 00:46:00,
2013-10-14 19:52:00,77.4,68.9,29.91,South,184,3.0,6.0,75,0.00,,,0.00,Wunderground v.1.15,2013-10-15 00:52:00,
2013-10-14 19:57:00,77.2,68.7,29.91,SSW,209,3.0,5.0,75,0.00,,,0.00,Wunderground v.1.15,2013-10-15 00:57:00,
2013-10-14 20:02:00,77.0,68.9,29.91,SSW,192,3.0,5.0,76,0.00,,,0.00,Wunderground v.1.15,2013-10-15 01:02:00,
2013-10-14 20:07:00,77.0,68.9,29.91,SSW,195,3.0,5.0,76,0.00,,,0.00,Wunderground v.1.15,2013-10-15 01:07:00,
2013-10-14 20:12:00,76.8,68.7,29.91,SSW,196,3.0,3.0,76,0.00,,,0.00,Wunderground v.1.15,2013-10-15 01:12:00,
2013-10-14 20:17:00,76.7,68.6,29.92,South,191,3.0,3.0,76,0.00,,,0.00,Wunderground v.1.15,2013-10-15 01:17:00,
2013-10-14 20:22:00,76.5,68.7,29.92,SSW,202,3.0,5.0,77,0.00,,,0.00,Wunderground v.1.15,2013-10-15 01:22:00,
2013-10-14 20:27:00,76.5,68.7,29.92,SSW,192,3.0,5.0,77,0.00,,,0.00,Wunderground v.1.15,2013-10-15 01:27:00,
2013-10-14 20:32:00,76.3,68.9,29.92,SSW,213,3.0,3.0,78,0.00,,,0.00,Wunderground v.1.15,2013-10-15 01:32:00,
2013-10-14 20:37:00,76.1,69.1,29.92,SSW,203,2.0,3.0,79,0.00,,,0.00,Wunderground v.1.15,2013-10-15 01:37:00,
2013-10-14 20:42:00,76.1,69.1,29.92,SSW,205,1.0,1.0,79,0.00,,,0.00,Wunderground v.1.15,2013-10-15 01:42:00,
2013-10-14 20:48:00,76.0,69.0,29.93,SSW,203,0.0,1.0,79,0.00,,,0.00,Wunderground v.1.15,2013-10-15 01:48:00,
2013-10-14 20:53:00,75.8,68.8,29.93,South,185,1.0,1.0,79,0.00,,,0.00,Wunderground v.1.15,2013-10-15 01:53:00,
2013-10-14 20:58:00,75.8,69.2,29.93,South,185,0.0,1.0,80,0.00,,,0.00,Wunderground v.1.15,2013-10-15 01:58:00,
2013-10-14 21:03:00,75.6,69.0,29.93,South,185,0.0,0.0,80,0.00,,,0.00,Wunderground v.1.15,2013-10-15 02:03:00,
2013-10-14 21:08:00,75.4,68.8,29.93,South,185,0.0,0.0,80,0.00,,,0.00,Wunderground v.1.15,2013-10-15 02:08:00,
2013-10-14 21:13:00,75.3,69.1,29.93,South,185,0.0,0.0,81,0.00,,,0.00,Wunderground v.1.15,2013-10-15 02:13:00,
2013-10-14 21:18:00,75.3,69.1,29.93,South,185,0.0,0.0,81,0.00,,,0.00,Wunderground v.1.15,2013-10-15 02:18:00,
2013-10-14 21:23:00,75.1,69.2,29.93,South,185,0.0,0.0,82,0.00,,,0.00,Wunderground v.1.15,2013-10-15 02:23:00,
2013-10-14 21:28:00,75.1,69.2,29.93,South,185,0.0,0.0,82,0.00,,,0.00,Wunderground v.1.15,2013-10-15 02:28:00,
2013-10-14 21:33:00,74.9,69.0,29.94,South,185,0.0,2.0,82,0.00,,,0.00,Wunderground v.1.15,2013-10-15 02:33:00,
2013-10-14 21:39:00,74.9,69.0,29.94,South,185,0.0,2.0,82,0.00,,,0.00,Wunderground v.1.15,2013-10-15 02:39:00,
2013-10-14 21:44:00,74.9,69.0,29.94,South,186,1.0,1.0,82,0.00,,,0.00,Wunderground v.1.15,2013-10-15 02:44:00,
2013-10-14 21:49:00,74.9,69.4,29.94,South,186,2.0,2.0,83,0.00,,,0.00,Wunderground v.1.15,2013-10-15 02:49:00,
2013-10-14 21:54:00,74.7,69.2,29.94,South,186,1.0,1.0,83,0.00,,,0.00,Wunderground v.1.15,2013-10-15 02:54:00,
2013-10-14 21:59:00,74.7,69.2,29.94,South,186,1.0,2.0,83,0.00,,,0.00,Wunderground v.1.15,2013-10-15 02:59:00,
2013-10-14 22:04:00,74.7,69.5,29.94,South,186,1.0,2.0,84,0.00,,,0.00,Wunderground v.1.15,2013-10-15 03:04:00,
2013-10-14 22:09:00,74.6,69.4,29.94,South,186,3.0,3.0,84,0.00,,,0.00,Wunderground v.1.15,2013-10-15 03:09:00,
2013-10-14 22:14:00,74.6,69.4,29.94,South,182,3.0,3.0,84,0.00,,,0.00,Wunderground v.1.15,2013-10-15 03:14:00,
2013-10-14 22:19:00,74.6,69.4,29.94,South,184,3.0,3.0,84,0.00,,,0.00,Wunderground v.1.15,2013-10-15 03:19:00,
2013-10-14 22:24:00,74.6,69.4,29.94,South,182,2.0,3.0,84,0.00,,,0.00,Wunderground v.1.15,2013-10-15 03:24:00,
2013-10-14 22:29:00,74.6,69.8,29.94,SSW,193,2.0,3.0,85,0.00,,,0.00,Wunderground v.1.15,2013-10-15 03:29:00,
2013-10-14 22:35:00,74.4,69.6,29.94,South,186,2.0,2.0,85,0.00,,,0.00,Wunderground v.1.15,2013-10-15 03:35:00,
2013-10-14 22:40:00,74.4,69.6,29.94,South,184,2.0,3.0,85,0.00,,,0.00,Wunderground v.1.15,2013-10-15 03:40:00,
2013-10-14 22:45:00,74.4,69.6,29.94,South,186,3.0,5.0,85,0.00,,,0.00,Wunderground v.1.15,2013-10-15 03:45:00,
2013-10-14 22:50:00,74.4,69.6,29.94,South,185,3.0,5.0,85,0.00,,,0.00,Wunderground v.1.15,2013-10-15 03:50:00,
2013-10-14 22:55:00,74.2,69.7,29.94,South,186,2.0,3.0,86,0.00,,,0.00,Wunderground v.1.15,2013-10-15 03:55:00,
2013-10-14 23:00:00,74.2,69.7,29.94,South,186,2.0,3.0,86,0.00,,,0.00,Wunderground v.1.15,2013-10-15 04:00:00,
2013-10-14 23:02:00,74.2,69.7,29.94,South,186,2.0,3.0,86,0.00,,,0.00,Wunderground v.1.15,2013-10-15 04:02:00,
2013-10-14 23:04:00,74.2,69.7,29.94,South,186,2.0,3.0,86,0.00,,,0.00,Wunderground v.1.15,2013-10-15 04:04:00,
2013-10-14 23:05:00,74.2,69.7,29.94,South,186,2.0,3.0,86,0.00,,,0.00,Wunderground v.1.15,2013-10-15 04:05:00,
2013-10-14 23:11:00,74.2,69.7,29.94,SSW,193,2.0,3.0,86,0.00,,,0.00,Wunderground v.1.15,2013-10-15 04:11:00,
2013-10-14 23:12:00,74.2,69.7,29.94,SSW,193,3.0,3.0,86,0.00,,,0.00,Wunderground v.1.15,2013-10-15 04:12:00,
2013-10-14 23:17:00,74.2,69.7,29.93,SSW,193,3.0,3.0,86,0.00,,,0.00,Wunderground v.1.15,2013-10-15 04:17:00,
2013-10-14 23:22:00,74.0,69.5,29.93,SSW,193,2.0,3.0,86,0.00,,,0.00,Wunderground v.1.15,2013-10-15 04:22:00,
2013-10-14 23:24:00,74.0,69.5,29.93,South,182,2.0,3.0,86,0.00,,,0.00,Wunderground v.1.15,2013-10-15 04:24:00,
2013-10-14 23:29:00,74.0,69.9,29.93,SSW,196,2.0,3.0,87,0.00,,,0.00,Wunderground v.1.15,2013-10-15 04:29:00,
2013-10-14 23:34:00,74.0,69.9,29.92,South,184,3.0,5.0,87,0.00,,,0.00,Wunderground v.1.15,2013-10-15 04:34:00,
2013-10-14 23:39:00,73.9,69.8,29.92,South,186,3.0,5.0,87,0.00,,,0.00,Wunderground v.1.15,2013-10-15 04:39:00,
2013-10-14 23:45:00,73.9,69.8,29.92,SSW,206,2.0,2.0,87,0.00,,,0.00,Wunderground v.1.15,2013-10-15 04:45:00,
2013-10-14 23:50:00,73.9,69.8,29.92,SSW,193,2.0,2.0,87,0.00,,,0.00,Wunderground v.1.15,2013-10-15 04:50:00,
2013-10-14 23:55:00,73.9,69.8,29.92,SSW,193,2.0,2.0,87,0.00,,,0.00,Wunderground v.1.15,2013-10-15 04:55:00,